Weather History for KAXN - June, 2013

Change the Weather History Date:

Monday, June 10, 2013

  Actual Average Record
Temperature  
Mean Temperature 63 °F -  
Max Temperature 73 °F 75 °F 92 °F (1956)
Min Temperature 53 °F 54 °F 40 °F (1958)
Degree Days  
Heating Degree Days 2    
Growing Degree Days 13 (Base 50)    
Moisture  
Dew Point 55 °F    
Average Humidity 88    
Maximum Humidity 100    
Minimum Humidity 57    
Precipitation  
Precipitation 0.00 in - - ()
Sea Level Pressure  
Sea Level Pressure 29.86 in    
Wind  
Wind Speed 2 mph (West)    
Max Wind Speed 8 mph    
Max Gust Speed -    
Visibility 5 miles    
Events Fog    
Averages and records for this station are not official NWS values.
T = Trace of Precipitation, MM = Missing Value Source: NWS Daily Summary

Daily Weather History Graph

Daily Weather History Graph

Search for Another Location

Airport or City:

Trip Planner

Search our weather history database for the weather conditions in past years. The results will help you decide how hot, cold, wet, or windy it might be!

Date:

Astronomy

Jun. 10, 2013 Rise Set
Actual Time 5:31 AM CDT 9:11 PM CDT
Civil Twilight 4:53 AM CDT 9:49 PM CDT
Nautical Twilight 4:02 AM CDT 10:40 PM CDT
Astronomical Twilight 2:53 AM CDT 11:50 PM CDT
Moon 7:25 AM CDT (6/10) 10:32 PM CDT (6/10)
Length of Visible Light 16h 56m
Length of Day
15h 40m
Waxing Crescent, 4% of the Moon is Illuminated
Jun 10
Waxing Crescent
Jun 16
First Quarter
Jun 23
Full
Jun 29
Last Quarter
Jul 8
New

Hourly Weather History & Observations

Time (CDT) Temp. Dew Point Humidity Pressure Visibility Wind Dir Wind Speed Gust Speed Precip Events Conditions
12:05 AM 57.2 °F 55.4 °F 94% 29.86 in 4.0 mi Calm Calm - N/A   Overcast
12:13 AM 57.2 °F 55.4 °F 94% 29.86 in 4.0 mi Calm Calm - N/A   Overcast
12:31 AM 57.2 °F 55.4 °F 94% 29.86 in 4.0 mi Calm Calm - N/A   Overcast
12:53 AM 57.0 °F 55.9 °F 96% 29.87 in 4.0 mi Calm Calm - N/A   Overcast
1:16 AM 57.2 °F 55.4 °F 94% 29.86 in 4.0 mi Calm Calm - N/A   Overcast
1:50 AM 57.2 °F 55.4 °F 94% 29.85 in 4.0 mi Calm Calm - N/A   Overcast
1:53 AM 57.0 °F 55.9 °F 96% 29.86 in 4.0 mi Calm Calm - N/A   Overcast
2:53 AM 57.0 °F 55.0 °F 93% 29.85 in 3.0 mi Calm Calm - N/A   Overcast
3:05 AM 55.4 °F 55.4 °F 100% 29.84 in 2.5 mi Calm Calm - N/A   Mostly Cloudy
3:15 AM 55.4 °F 55.4 °F 100% 29.84 in 1.8 mi Calm Calm - N/A   Scattered Clouds
3:18 AM 55.4 °F 55.4 °F 100% 29.84 in 0.8 mi Calm Calm - N/A   Scattered Clouds
3:21 AM 55.4 °F 53.6 °F 94% 29.84 in 0.2 mi Calm Calm - N/A Fog Fog
3:30 AM 55.4 °F 53.6 °F 94% 29.84 in 0.2 mi Calm Calm - N/A Fog Fog
3:53 AM 54.0 °F 53.1 °F 97% 29.86 in 0.2 mi Calm Calm - N/A Fog Fog
4:53 AM 55.0 °F 54.0 °F 96% 29.86 in 0.5 mi WNW 4.6 mph - N/A Fog Fog
4:56 AM 55.4 °F 55.4 °F 100% 29.85 in 1.0 mi WNW 5.8 mph - N/A   Mist
5:15 AM 55.4 °F 55.4 °F 100% 29.85 in 2.0 mi Calm Calm - N/A   Overcast
5:28 AM 55.4 °F 55.4 °F 100% 29.85 in 3.0 mi Calm Calm - N/A   Overcast
5:40 AM 55.4 °F 53.6 °F 94% 29.84 in 2.5 mi NNW 3.5 mph - N/A   Overcast
5:49 AM 53.6 °F 53.6 °F 100% 29.84 in 1.5 mi NNW 4.6 mph - N/A   Overcast
5:51 AM 53.6 °F 53.6 °F 100% 29.84 in 0.5 mi NW 3.5 mph - N/A Fog Fog
5:53 AM 54.0 °F 54.0 °F 100% 29.86 in 0.2 mi NW 3.5 mph - N/A Fog Fog
6:29 AM 53.6 °F 53.6 °F 100% 29.86 in 1.0 mi WNW 4.6 mph - N/A   Mist
6:36 AM 53.6 °F 53.6 °F 100% 29.87 in 0.5 mi WNW 4.6 mph - N/A Fog Fog
6:53 AM 54.0 °F 54.0 °F 100% 29.89 in 0.2 mi WNW 5.8 mph - N/A Fog Fog
7:09 AM 53.6 °F 53.6 °F 100% 29.88 in 0.8 mi NW 5.8 mph - N/A   Mist
7:17 AM 53.6 °F 53.6 °F 100% 29.88 in 0.5 mi NW 6.9 mph - N/A Fog Fog
7:23 AM 53.6 °F 53.6 °F 100% 29.87 in 1.0 mi NW 5.8 mph - N/A   Overcast
7:36 AM 53.6 °F 53.6 °F 100% 29.87 in 2.0 mi NW 5.8 mph - N/A   Overcast
7:44 AM 55.4 °F 53.6 °F 94% 29.88 in 4.0 mi NW 5.8 mph - N/A   Overcast
7:53 AM 54.0 °F 54.0 °F 100% 29.89 in 4.0 mi WNW 5.8 mph - N/A   Overcast
8:21 AM 55.4 °F 53.6 °F 94% 29.88 in 10.0 mi WNW 4.6 mph - N/A   Overcast
8:53 AM 55.9 °F 53.1 °F 90% 29.90 in 10.0 mi WSW 3.5 mph - N/A   Overcast
9:15 AM 57.2 °F 53.6 °F 88% 29.89 in 10.0 mi Calm Calm - N/A   Overcast
9:53 AM 57.0 °F 53.1 °F 87% 29.91 in 10.0 mi WNW 3.5 mph - N/A   Overcast
10:06 AM 57.2 °F 53.6 °F 88% 29.90 in 10.0 mi West 4.6 mph - N/A   Overcast
10:53 AM 59.0 °F 53.1 °F 81% 29.88 in 10.0 mi Calm Calm - N/A   Overcast
11:37 AM 62.6 °F 55.4 °F 77% 29.86 in 10.0 mi Calm Calm - N/A   Mostly Cloudy
11:53 AM 61.0 °F 54.0 °F 78% 29.87 in 10.0 mi Variable 3.5 mph - N/A   Mostly Cloudy
12:20 PM 64.4 °F 55.4 °F 73% 29.86 in 10.0 mi Calm Calm - N/A   Scattered Clouds
12:30 PM 64.4 °F 55.4 °F 73% 29.87 in 10.0 mi Variable 3.5 mph - N/A   Mostly Cloudy
12:37 PM 64.4 °F 55.4 °F 73% 29.86 in 10.0 mi ESE 5.8 mph - N/A   Scattered Clouds
12:53 PM 64.9 °F 55.9 °F 73% 29.86 in 10.0 mi ESE 4.6 mph - N/A   Scattered Clouds
1:53 PM 66.9 °F 57.0 °F 70% 29.86 in 10.0 mi East 3.5 mph - N/A   Clear
2:53 PM 69.1 °F 57.0 °F 65% 29.86 in 10.0 mi SW 4.6 mph - N/A   Mostly Cloudy
3:53 PM 70.0 °F 57.9 °F 65% 29.85 in 10.0 mi Variable 4.6 mph - N/A   Overcast
4:53 PM 72.0 °F 57.9 °F 61% 29.84 in 10.0 mi SSE 3.5 mph - N/A   Partly Cloudy
5:53 PM 73.0 °F 59.0 °F 61% 29.84 in 10.0 mi South 5.8 mph - N/A   Scattered Clouds
6:53 PM 73.0 °F 57.0 °F 57% 29.83 in 10.0 mi South 3.5 mph - N/A   Scattered Clouds
7:53 PM 73.0 °F 57.9 °F 59% 29.82 in 10.0 mi SSE 8.1 mph - N/A   Clear
8:53 PM 70.0 °F 57.9 °F 65% 29.83 in 10.0 mi South 5.8 mph - N/A   Clear
9:53 PM 66.9 °F 59.0 °F 76% 29.84 in 10.0 mi Calm Calm - N/A   Clear
10:53 PM 63.0 °F 59.0 °F 87% 29.85 in 10.0 mi Calm Calm - N/A   Clear
11:53 PM 61.0 °F 57.0 °F 87% 29.85 in 10.0 mi SSE 5.8 mph - N/A   Clear